This is the latest recevied weather packets stored in our database for station/object KE5WTH-14. If no packets are shown the sender has not sent any weather packets the latest 10 day(s).
| Time | Temp. | Humidity | Pressure | Rain* | Wind** | Luminosity | Snow |
|---|---|---|---|---|---|---|---|
| 1778357852 | 31.11° C | 52% | 1009.3 hPa | 0 mm | - | 906 W/m² | - |
| 1778357793 | 31.11° C | 55% | 1009.3 hPa | 0 mm | - | 909 W/m² | - |
| 1778357731 | 31.11° C | 53% | 1009.3 hPa | 0 mm | - | 911 W/m² | - |
| 1778357672 | 31.11° C | 55% | 1009.3 hPa | 0 mm | - | 916 W/m² | - |
| 1778357612 | 31.11° C | 55% | 1009.4 hPa | 0 mm | - | 920 W/m² | - |
| 1778357551 | 31.11° C | 55% | 1009.4 hPa | 0 mm | - | 921 W/m² | - |
| 1778357492 | 30.56° C | 55% | 1009.4 hPa | 0 mm | - | 921 W/m² | - |
| 1778357432 | 30.56° C | 57% | 1009.4 hPa | 0 mm | - | 916 W/m² | - |
| 1778357371 | 30.56° C | 57% | 1009.4 hPa | 0 mm | - | 904 W/m² | - |
| 1778357313 | 30.56° C | 57% | 1009.4 hPa | 0 mm | - | 906 W/m² | - |
| 1778357252 | 30° C | 56% | 1009.3 hPa | 0 mm | - | 902 W/m² | - |
| 1778357192 | 30° C | 55% | 1009.4 hPa | 0 mm | - | 907 W/m² | - |
| 1778357131 | 30° C | 56% | 1009.4 hPa | 0 mm | - | 920 W/m² | - |
| 1778357072 | 30° C | 57% | 1009.5 hPa | 0 mm | - | 916 W/m² | - |
| 1778357012 | 30° C | 55% | 1009.6 hPa | 0 mm | - | 911 W/m² | - |
| 1778356951 | 30.56° C | 55% | 1009.4 hPa | 0 mm | - | 911 W/m² | - |
| 1778356892 | 30.56° C | 55% | 1009.5 hPa | 0 mm | - | 927 W/m² | - |
| 1778356832 | 30.56° C | 53% | 1009.4 hPa | 0 mm | - | 937 W/m² | - |
| 1778356771 | 30.56° C | 54% | 1009.5 hPa | 0 mm | - | 937 W/m² | - |
| 1778356709 | 30.56° C | 53% | 1009.5 hPa | 0 mm | - | 937 W/m² | - |
| 1778356648 | 30.56° C | 55% | 1009.5 hPa | 0 mm | - | 939 W/m² | - |
| 1778356583 | 30.56° C | 53% | 1009.5 hPa | 0 mm | - | 935 W/m² | - |
| 1778356550 | 30.56° C | 53% | 1009.6 hPa | 0 mm | - | 935 W/m² | - |
| 1778356522 | 30° C | 53% | 1009.5 hPa | 0 mm | - | 939 W/m² | - |
| 1778356493 | 30° C | 53% | 1009.5 hPa | 0 mm | - | 941 W/m² | - |
* Rain latest hour (hover to see other rain measurements)
** Current wind speed in m/s (hover to see current wind gust speed)